www.pogodaiklimat.ru

Погода и климат >> Архив погоды >> Мексика >> Empalme


ПОГОДА в Empalme

  • Прогноз погоды в Empalme
  • Монитор погоды в Empalme
  • Климат города

АРХИВ ПОГОДЫ в Empalme

Время (UTC), дата Ветер
(напр.,м/с)
 
Видим.   Явления Облачность Т
(С)
Тd
(С)
f
(%)
Тe
(С)
Тes
(С)
Комфортность P
(гПа)
Po
(гПа)
Тmin
(С)
Tmax
(С)
R
(мм)
R24
(мм)
S
(см)
00 14.05 ЮЗ 1 30 км ясно +32.9 +13.5 31 +34 +39 очень
жарко
1011.5 1010.1 +17.9 +33.7
12 14.05 штиль 0 10 км ясно +21.8 +10.4 48 +24 +24 комфорт 1010.4 1012.6 +17.9 +33.7
15 14.05 штиль 0 30 км ясно +26.0 +10.1 37 +27 +34 жарко 1012.0 1010.6
18 14.05 ЮЗ 3 30 км ясно +33.0 +9.0 23 +32 +48 жарко 1012.5 1011.1 +20.9 +33.4
21 14.05 ЮЗ 4 30 км ясно +35.2 +8.7 20 +34 +46 очень
жарко
1011.3 1009.9
00 15.05 штиль 0 10 км ясно +34.5 +9.3 21 +33 +39 жарко 1009.9 1008.5 +20.9 +36.2
03 15.05 штиль 0 10 км ясно +29.6 +3.1 18 +27 +27 жарко 1010.1 1008.7
12 15.05 штиль 0 10 км ясно +19.7 +6.0 41 +20 +20 1011.0 1009.6 +17.9 +33.7
15 15.05 С 2 30 км ясно +26.6 +8.3 31 +27 +32 жарко 1012.9 1011.5
18 15.05 З 2 30 км ясно +36.7 +11.7 22 +36 +56 опасность
солнечного
удара
1012.9 1011.6 +18.0 +37.4
21 15.05 ЮЗ 4 30 км ясно +36.2 +11.8 23 +36 +48 очень
жарко
1010.9 1009.5
00 16.05 штиль 0 30 км ясно +36.3 +6.5 16 +34 +40 очень
жарко
1009.2 1007.8 +18.0 +38.3
03 16.05 штиль 0 10 км ясно +34.1 +1.0 12 +31 +31 жарко 1009.6 1008.2
12 16.05 СЗ 1 10 км ясно +28.3 -4.3 12 +25 +25 комфорт 1009.5 1008.1 +27.8 +38.3
15 16.05 штиль 0 30 км ясно +32.0 -5.1 9 +28 +36 жарко 1010.2 1008.8
18 16.05 СЗ 4 30 км ясно +40.0 -2.6 7 +36 +49 очень
жарко
1010.0 1008.6 +24.0 +40.8
21 16.05 СЗ 4 30 км ясно +42.5 -0.5 7 +39 +51 опасность
солнечного
удара
1008.9 1007.5
00 17.05 ЮЗ 1 30 км ясно +38.4 +9.6 18 +37 +42 очень
жарко
1007.9 1006.5 +24.0 +44.5
03 17.05 З 1 10 км ясно +34.7 +6.7 18 +33 +33 жарко 1008.5 1007.1
15 17.05 штиль 0 30 км ясно +30.2 +11.6 32 +31 +38 жарко 1011.3 1009.9
18 17.05 ЮЗ 2 30 км ясно +35.8 +13.4 26 +36 +56 опасность
солнечного
удара
1011.9 1010.5 +23.5 +36.7
21 17.05 ЮЗ 5 30 км ясно +35.9 +6.5 16 +39 +49 очень
душно
1010.3 1008.9
00 18.05 ЮЗ 1 30 км ясно +36.8 -0.3 10 +33 +39 жарко 1008.3 1006.9 +23.5 +37.7
03 18.05 ЮЗ 1 10 км ясно +30.0 +1.6 16 +27 +27 жарко 1008.6 1007.2
12 18.05 штиль 0 10 км ясно +20.0 +3.5 34 +20 +20 1009.0 1007.6 +23.5
15 18.05 штиль 0 30 км ясно +26.0 +8.9 34 +26 +34 жарко 1010.3 1008.9
18 18.05 ЮЗ 3 30 км ясно +30.6 +11.0 30 +31 +47 жарко 1010.8 1009.4 +19.0 +31.0
21 18.05 ЮЗ 3 30 км ясно +32.5 +8.9 23 +31 +47 жарко 1009.9 1008.5
00 19.05 штиль 0 30 км ясно +30.6 +5.0 20 +29 +35 жарко 1009.0 1007.6 +19.0 +33.2
03 19.05 штиль 0 10 км ясно +26.4 +0.4 18 +25 +25 комфорт 1009.8 1008.4
12 19.05 штиль 0 10 км ясно +15.2 +6.5 56 +15 +15 1009.8 1008.4 +14.5 +33.2
15 19.05 штиль 0 30 км ясно +23.9 +15.0 57 +27 +34 жарко 1010.9 1009.5
18 19.05 ЮЗ 2 30 км ясно +30.5 +10.0 28 +30 +50 жарко 1011.5 1010.1 +14.9 +31.2
21 19.05 ЮЗ 3 30 км ясно +32.6 +10.3 25 +32 +48 жарко 1010.3 1008.9
00 20.05 штиль 0 30 км ясно +32.2 +3.0 16 +30 +36 жарко 1009.3 1007.9 +14.4 +33.8
03 20.05 штиль 0 10 км ясно +26.2 +4.2 24 +25 +25 комфорт 1009.9 1008.5
12 20.05 С 1 10 км ясно +15.9 +4.8 48 +17 +17 1010.5 1009.1 +15.3 +33.2
15 20.05 СВ 2 30 км ясно +23.0 +9.2 41 +24 +30 комфорт 1011.7 1010.3
18 20.05 ЮЗ 2 30 км ясно +28.1 +11.7 36 +29 +49 жарко 1011.9 1010.5 +15.6 +29.0

 

Местоположение метеостанции Empalme (Мексика): широта 27.95 долгота -110.70 высота над уровнем моря 12 м.

В архиве по умолчанию представлена погода в Empalme за последнюю неделю. Архивные данные за месяц целиком и за предыдущие месяцы, начиная с января 2011 года, Вы можете получить, выбрав интересующий диапазон дат из раскрывающегося списка и нажав кнопку "Ввод!".


*Определитесь, кто Вы:
робот инопланетянин человек

Внимание! Время в таблицах - всемирное. Для получения местного времени необходимо прибавить поправку, которая в Empalme равна -7 ч.

Смотрите также архив погоды в соседних городах и на ближайших метеорологических станциях:

Погода в Guaymas (Мексика) (18 км)
Погода в Ciudad Obregon (Мексика) (106 км)
Погода в Hermosillo la Magna (Мексика) (128 км)
Погода в Hermosillo (Мексика) (131 км)
Погода в Santa Rosalia (Мексика) (170 км)
Погода в Loreto (Мексика) (223 км)
Погода в Choix (Мексика) (282 км)
Погода в Pilares de Nacoz (Мексика) (287 км)
Погода в Temosachic (Мексика) (305 км)
Погода в Altar Son (Мексика) (326 км)

Пояснения к столбцам:

Ветер - указаны скорость ветра в м/с - средняя за 10 мин, порывы в срок и между сроками (в фигурных скобках) и направление, откуда дует ветер: С - северный, СВ - северо-восточный, В - восточный, ЮВ - юго-восточный, Ю - южный, ЮЗ - юго-западный, З - западный, СЗ - северо-западный.
Видимость - горизонтальная дальность видимости в метрах или километрах. При видимости от 1 до 10 км при отсутствии осадков обычно наблюдается дымка, при ухудшении видимости до 1 км и менее - туман. В сухую погоду видимость может ухудшаться дымом, пылью или мглою.
Явления - указаны атмосферные явления, наблюдавшиеся в срок или в последний час перед сроком; фигурными скобками обозначены явления, наблюдавшиеся между сроками (за 1-3 часа до срока); квадратными скобками обозначены град или гололедные отложения с указанием их диаметра в мм.
Облачность - указаны через наклонную черту общая и нижняя облачность в баллах и высота нижней границы облаков в метрах; квадратными скобками обозначены формы облаков: Ci - перистые, Cs - перисто-слоистые, Cc - перисто-кучевые, Ac - высококучевые, As - высокослоистые, Sc - слоисто-кучевые, Ns - слоисто-дождевые, Cu - кучевые, Cb - кучево-дождевые. Подробнее классификацию облаков см. в Атласе облаков (PDF).
T - Температура воздуха - температура, измеренная на высоте 2 м над землей.
Td - Температура точки росы - температура, при понижении до которой содержащийся в воздухе водяной пар достигнет насыщения.
f - Относительная влажность воздуха - влажноcть воздуха, измеренная на высоте 2 м над землей.
Te - Эффективная температура - температура, которую ощущает одетый по сезону человек в тени. Характеристика душности погоды. При расчете учитывается влияние влажности воздуха и скорости ветра на теплоощущения человека.
Tes - Эффективная температура на солнце - температура, которую ощущает человек, с поправкой на солнечный нагрев. Характеристика знойности погоды. Зависит от высоты солнца над горизонтом, облачности и скорости ветра. Ночью, в пасмурную погоду, а также при ветре 12 м/с и более поправка равна нулю.
P - Атмосферное давление - приведенное к уровню моря атмосферное давление.
Po - Атмосферное давление - измеренное на уровне метеостанции атмосферное давление.
Tmin - Минимальная температура - минимум температуры воздуха на высоте 2 м над землей.
Tmax - Максимальная температура - максимум температуры воздуха на высоте 2 м над землей.
R - Количество осадков - Количество выпавших осадков за период времени, мм. При наведении курсора мыши на число - период времени, за который выпало указанное количество осадков.
R24 - Количество осадков - Количество выпавших осадков за 24 часа, мм.
S - Снежный покров - Высота снежного покрова, см. При наведении курсора мыши на число - состояние снежного покрова и степень покрытия местности в баллах.